Weather History for Lovelock, NV

Change the Weather History Date:

Saturday, March 16, 2013

  Actual Average Record
Temperature  
Mean Temperature 50 °F -  
Max Temperature 69 °F 56 °F 80 °F (2007)
Min Temperature 32 °F 28 °F 10 °F (1955)
Degree Days  
Heating Degree Days 15    
Moisture  
Dew Point 20 °F    
Average Humidity 30    
Maximum Humidity 56    
Minimum Humidity 15    
Precipitation  
Precipitation 0.00 in - - ()
Sea Level Pressure  
Sea Level Pressure 29.97 in    
Wind  
Wind Speed 8 mph (WNW)    
Max Wind Speed 22 mph    
Max Gust Speed 30 mph    
Visibility 10 miles    
Events      
Averages and records for this station are not official NWS values.
T = Trace of Precipitation, MM = Missing Value Source: NWS Daily Summary

Daily Weather History Graph

Daily Weather History Graph

Search for Another Location

Airport:

Trip Planner

Search our weather history database for the weather conditions in past years. The results will help you decide how hot, cold, wet, or windy it might be!

Date:

Astronomy

Mar. 16, 2013 Rise Set
Actual Time 7:03 AM PDT 7:02 PM PDT
Civil Twilight 6:36 AM PDT 7:29 PM PDT
Nautical Twilight 6:05 AM PDT 8:01 PM PDT
Astronomical Twilight 5:33 AM PDT 8:33 PM PDT
Moon 9:36 AM PDT (3/16) No Moon Set
Length of Visible Light 12h 52m
Length of Day
11h 58m
Waxing Crescent, 24% of the Moon is Illuminated
Mar 16
Waxing Crescent
Mar 19
First Quarter
Mar 27
Full
Apr 2
Last Quarter
Apr 10
New

Hourly Weather History & Observations

Time (PDT) Temp. Windchill Dew Point Humidity Pressure Visibility Wind Dir Wind Speed Gust Speed Precip Events Conditions
12:53 AM 55.0 °F - 19.9 °F 25% 30.01 in 10.0 mi North 11.5 mph - N/A   Clear
1:53 AM 52.0 °F - 19.0 °F 27% 30.02 in 10.0 mi NNW 6.9 mph - N/A   Clear
2:53 AM 44.1 °F 38.6 °F 21.0 °F 40% 30.03 in 10.0 mi NW 10.4 mph - N/A   Clear
3:53 AM 39.9 °F 35.8 °F 19.0 °F 43% 30.03 in 10.0 mi ENE 5.8 mph - N/A   Clear
4:53 AM 39.0 °F 36.8 °F 18.0 °F 43% 30.03 in 10.0 mi ENE 3.5 mph - N/A   Clear
5:53 AM 37.0 °F - 17.1 °F 44% 30.04 in 10.0 mi Calm Calm - N/A   Clear
6:53 AM 33.1 °F - 19.0 °F 56% 30.06 in 10.0 mi Calm Calm - N/A   Clear
7:53 AM 32.0 °F - 17.1 °F 54% 30.08 in 10.0 mi Calm Calm - N/A   Clear
8:53 AM 46.9 °F - 23.0 °F 39% 30.06 in 10.0 mi SE 6.9 mph - N/A   Clear
9:53 AM 53.1 °F - 21.9 °F 30% 30.05 in 10.0 mi Variable 3.5 mph - N/A   Clear
10:53 AM 57.9 °F - 23.0 °F 26% 30.03 in 10.0 mi WNW 4.6 mph - N/A   Clear
11:53 AM 61.0 °F - 21.9 °F 22% 30.00 in 10.0 mi West 6.9 mph - N/A   Clear
12:53 PM 64.9 °F - 23.0 °F 20% 29.96 in 10.0 mi West 11.5 mph - N/A   Clear
1:53 PM 64.9 °F - 21.0 °F 19% 29.92 in 10.0 mi SW 9.2 mph - N/A   Clear
2:53 PM 68.0 °F - 19.0 °F 15% 29.90 in 10.0 mi West 13.8 mph 24.2 mph N/A   Clear
3:53 PM 66.9 °F - 18.0 °F 15% 29.88 in 10.0 mi West 10.4 mph 23.0 mph N/A   Clear
4:53 PM 66.9 °F - 18.0 °F 15% 29.87 in 10.0 mi WNW 20.7 mph 29.9 mph N/A   Clear
5:53 PM 64.0 °F - 16.0 °F 16% 29.87 in 10.0 mi West 21.9 mph 29.9 mph N/A   Clear
6:53 PM 61.0 °F - 19.0 °F 20% 29.89 in 10.0 mi West 18.4 mph - N/A   Clear
7:53 PM 57.9 °F - 21.0 °F 24% 29.91 in 10.0 mi WNW 17.3 mph - N/A   Scattered Clouds
8:53 PM 55.0 °F - 21.0 °F 27% 29.91 in 10.0 mi NW 11.5 mph - N/A   Clear
9:53 PM 52.0 °F - 21.0 °F 30% 29.94 in 10.0 mi WNW 10.4 mph - N/A   Clear
10:53 PM 53.1 °F - 21.9 °F 30% 29.95 in 10.0 mi SSE 6.9 mph - N/A   Overcast
11:53 PM 52.0 °F - 23.0 °F 32% 29.95 in 10.0 mi Calm Calm - N/A   Overcast